Time_in_sec,Latitude,Longitude,Altitude,Nbsat_max_qualitysignal,Nbsat_locked,valid_data
1326899528.36866212,47.37632751,8.55028820,499.53897095,1,5,1
1326899528.42052341,47.37632751,8.55029106,498.87530518,1,5,1
1326899528.46899986,47.37632751,8.55029106,498.97702026,1,5,1
1326899528.51752973,47.37632751,8.55029106,499.07867432,1,5,1
1326899528.57253504,47.37632751,8.55029011,499.18029785,1,5,1
1326899528.61655450,47.37632751,8.55029011,499.28189087,1,5,1
1326899528.66852450,47.37632370,8.55029202,498.59652710,1,5,1
1326899528.71756411,47.37632370,8.55029202,498.69586182,1,5,1
1326899528.76860070,47.37632370,8.55029202,498.79513550,1,5,1
1326899528.81662297,47.37632370,8.55029106,498.89440918,1,5,1
1326899528.86853766,47.37632751,8.55029106,498.99359131,1,5,1
1326899528.91655445,47.37632370,8.55029297,498.28781128,1,5,1
1326899528.96950150,47.37632370,8.55029297,498.38470459,1,5,1
1326899529.01666236,47.37632370,8.55029202,498.48153687,1,5,1
1326899529.06953287,47.37632370,8.55029202,498.57833862,1,5,1
1326899529.11751127,47.37632370,8.55029202,498.67510986,1,5,1
1326899529.16858292,47.37631989,8.55029392,497.94729614,1,5,1
1326899529.22055364,47.37631989,8.55029392,498.04168701,1,5,1
1326899529.26852465,47.37631989,8.55029392,498.13604736,1,5,1
1326899529.31755137,47.37632370,8.55029297,498.23034668,1,5,1
1326899529.36948085,47.37632370,8.55029297,498.32461548,1,5,1
1326899529.41752744,47.37631989,8.55029488,497.58529663,1,5,1
1326899529.46867347,47.37631989,8.55029488,497.67715454,1,5,1
1326899529.51764750,47.37631989,8.55029488,497.76898193,1,5,1
1326899529.56893134,47.37631989,8.55029488,497.86077881,1,5,1
1326899529.61765766,47.37631989,8.55029392,497.95251465,1,5,1
1326899529.66966820,47.37631607,8.55029583,497.21609497,1,5,1
1326899529.71662951,47.37631607,8.55029583,497.30548096,1,5,1
1326899529.76949668,47.37631989,8.55029583,497.39480591,1,5,1
1326899529.81753683,47.37631989,8.55029488,497.48410034,1,5,1
1326899529.86853504,47.37631989,8.55029488,497.57333374,1,5,1
1326899529.91751409,47.37631607,8.55029678,496.84112549,1,5,1
1326899529.96915293,47.37631607,8.55029678,496.92797852,1,5,1
1326899530.01754141,47.37631607,8.55029678,497.01477051,1,5,1
1326899530.06960273,47.37631607,8.55029583,497.10153198,1,5,1
1326899530.12064409,47.37631607,8.55029583,497.18823242,1,5,1
1326899530.16950107,47.37631226,8.55029869,496.44314575,1,5,1
1326899530.21717787,47.37631226,8.55029774,496.52746582,1,5,1
1326899530.26850796,47.37631226,8.55029774,496.61175537,1,5,1
1326899530.31751037,47.37631226,8.55029774,496.69595337,1,5,1
1326899530.36851287,47.37631226,8.55029774,496.78012085,1,5,1
1326899530.41814971,47.37631226,8.55029869,496.03414917,1,5,1
1326899530.47699189,47.37631226,8.55029869,496.11596680,1,5,1
1326899530.51750016,47.37631226,8.55029869,496.21408081,1,5,1
1326899530.56947923,47.37631226,8.55029869,496.27947998,1,5,1
1326899530.61753678,47.37631226,8.55029774,496.36114502,1,5,1
1326899530.66959405,47.37630844,8.55030060,495.60681152,1,5,1
1326899530.71749878,47.37630844,8.55029964,495.68609619,1,5,1
1326899530.76855135,47.37630844,8.55029964,495.76538086,1,5,1
1326899530.82052207,47.37630844,8.55029964,495.84460449,1,5,1
1326899530.86954355,47.37630844,8.55029964,495.92379761,1,5,1
1326899530.92071199,47.37630463,8.55030155,495.16571045,1,5,1
1326899530.96949410,47.37630463,8.55030060,495.24252319,1,5,1
1326899531.02080083,47.37630463,8.55030060,495.31927490,1,5,1
1326899531.06956863,47.37630463,8.55030060,495.39599609,1,5,1
1326899531.11761069,47.37630463,8.55030060,495.47262573,1,5,1
1326899531.16737175,47.37630081,8.55030251,494.70779419,1,5,1
1326899531.22151852,47.37630081,8.55030251,494.78204346,1,5,1
1326899531.26854229,47.37630081,8.55030155,494.85623169,1,5,1
1326899531.31675506,47.37630081,8.55030155,494.93041992,1,5,1
1326899531.36949420,47.37630081,8.55030155,495.00457764,1,5,1
1326899531.41687083,47.37630081,8.55030346,494.22418213,1,5,1
1326899531.46859860,47.37630081,8.55030346,494.29586792,1,5,1
1326899531.51750064,47.37630081,8.55030251,494.36749268,1,5,1
1326899531.56861520,47.37630081,8.55030251,494.43905640,1,5,1
1326899531.61660790,47.37630081,8.55030251,494.51058960,5,5,1
1326899531.66859698,47.37629700,8.55030441,493.72845459,5,5,1
1326899531.71661210,47.37629700,8.55030441,493.79754639,5,5,1
1326899531.76949739,47.37629700,8.55030346,493.86663818,5,5,1
1326899531.81658149,47.37629700,8.55030346,493.93566895,5,5,1
1326899531.86745882,47.37629700,8.55030346,494.00466919,5,5,1
1326899531.91749668,47.37629318,8.55030537,493.21392822,5,5,1
1326899531.96866441,47.37629318,8.55030441,493.28042603,5,5,1
1326899532.01659727,47.37629318,8.55030441,493.34686279,5,5,1
1326899532.06950498,47.37629318,8.55030441,493.41326904,5,5,1
1326899532.11686945,47.37629318,8.55030441,493.47964478,5,5,1
1326899532.16952777,47.37628937,8.55030632,492.69226074,5,5,1
1326899532.21723580,47.37628937,8.55030632,492.75619507,5,5,1
1326899532.26856399,47.37628937,8.55030537,492.82006836,5,5,1
1326899532.31761026,47.37628937,8.55030537,492.88391113,5,5,1
1326899532.36875796,47.37628937,8.55030537,492.94772339,5,5,1
1326899532.41765022,47.37628555,8.55030727,492.16235352,5,5,1
1326899532.46933770,47.37628555,8.55030727,492.22372437,5,5,1
1326899532.51764536,47.37628555,8.55030727,492.28503418,5,5,1
1326899532.56953287,47.37628555,8.55030727,492.34628296,5,5,1
1326899532.61750269,47.37628555,8.55030632,492.40750122,5,5,1
1326899532.66874242,47.37628555,8.55030823,491.63592529,5,5,1
1326899532.71756554,47.37628555,8.55030823,491.69473267,5,5,1
1326899532.76895595,47.37628555,8.55030823,491.75350952,5,5,1
1326899532.81759143,47.37628555,8.55030823,491.81222534,5,5,1
1326899532.87352753,47.37628555,8.55030727,491.87091064,5,5,1
1326899532.92062855,47.37628174,8.55031013,491.11190796,5,5,1
1326899532.96921515,47.37628174,8.55031013,491.16821289,5,5,1
1326899533.02049327,47.37628174,8.55030918,491.22448730,5,5,1
1326899533.06960392,47.37628174,8.55030918,491.28073120,5,5,1
1326899533.11754966,47.37628174,8.55030918,491.33691406,5,5,1
1326899533.16957855,47.37627792,8.55031109,490.58779907,5,5,1
1326899533.21764684,47.37627792,8.55031109,490.64166260,5,5,1
1326899533.26916099,47.37627792,8.55031013,490.69546509,5,5,1
1326899533.32175040,47.37627792,8.55031013,490.74923706,5,5,1
1326899533.36949039,47.37627792,8.55031013,490.80291748,5,5,1
1326899533.42050409,47.37627411,8.55031204,490.07723999,5,5,1
1326899533.46902633,47.37627411,8.55031204,490.12869263,5,5,1
1326899533.51751661,47.37627411,8.55031204,490.18011475,5,5,1
1326899533.56902122,47.37627411,8.55031109,490.23147583,5,5,1
1326899533.62049007,47.37627411,8.55031109,490.28280640,5,5,1
1326899533.66889501,47.37627411,8.55031300,489.57498169,5,5,1
1326899533.71689844,47.37627411,8.55031300,489.62417603,5,5,1
1326899533.76950765,47.37627411,8.55031300,489.67333984,5,5,1
1326899533.81689405,47.37627411,8.55031204,489.72244263,5,5,1
1326899533.87035656,47.37627411,8.55031204,489.77148438,5,5,1
1326899533.91938901,47.37627029,8.55031395,489.07485962,5,5,1
1326899533.96950626,47.37627029,8.55031395,489.12182617,5,5,1
1326899534.02051616,47.37627029,8.55031395,489.16873169,5,5,1
1326899534.07775736,47.37627029,8.55031300,489.21557617,5,5,1
1326899534.11753273,47.37627029,8.55031300,489.27172852,5,5,1
1326899534.16952634,47.37626648,8.55031490,488.58856201,5,5,1
1326899534.22152472,47.37626648,8.55031490,488.63333130,5,5,1
1326899534.26952696,47.37626648,8.55031490,488.67803955,5,5,1
1326899534.31754065,47.37626648,8.55031490,488.72268677,5,5,1
1326899534.36856556,47.37626648,8.55031395,488.76730347,5,5,1
1326899534.41754436,47.37626266,8.55031586,488.12997437,5,5,1
1326899534.46954679,47.37626266,8.55031586,488.17263794,5,5,1
1326899534.51756978,47.37626266,8.55031490,488.21527100,5,5,1
1326899534.56952834,47.37626266,8.55031490,488.25784302,5,5,1
1326899534.61660480,47.37626266,8.55031490,488.30038452,5,5,1
1326899534.66955209,47.37626266,8.55031681,487.68008423,5,5,1
1326899534.71751690,47.37626266,8.55031681,487.72073364,5,5,1
1326899534.76891208,47.37626266,8.55031681,487.76135254,5,5,1
1326899534.81751490,47.37626266,8.55031586,487.80191040,5,5,1
1326899534.86948180,47.37626266,8.55031586,487.84240723,5,5,1
1326899534.92052436,47.37625885,8.55031776,487.25292969,5,5,1
1326899534.96953583,47.37625885,8.55031776,487.29162598,5,5,1
1326899535.01652074,47.37625885,8.55031681,487.33029175,5,5,1
1326899535.06933117,47.37625885,8.55031681,487.36889648,5,5,1
1326899535.11752558,47.37625885,8.55031681,487.40747070,5,5,1
1326899535.16950607,47.37625885,8.55031872,486.84869385,5,5,1
1326899535.21735072,47.37625885,8.55031872,486.88558960,5,5,1
1326899535.26955485,47.37625885,8.55031776,486.92242432,5,5,1
1326899535.31664300,47.37625885,8.55031776,486.95925903,5,5,1
1326899535.36948204,47.37625885,8.55031776,486.99603271,5,5,1
1326899535.41653252,47.37625504,8.55031872,486.47003174,5,5,1
1326899535.46863770,47.37625504,8.55031872,486.50518799,5,5,1
1326899535.51752090,47.37625504,8.55031872,486.54031372,5,5,1
1326899535.56922388,47.37625504,8.55031776,486.57540894,5,5,1
1326899535.61661410,47.37625504,8.55031776,486.61044312,5,5,1
1326899535.66917777,47.37625122,8.55031967,486.10751343,5,5,1
1326899535.72056961,47.37625122,8.55031967,486.14099121,5,5,1
1326899535.77029276,47.37625122,8.55031967,486.17446899,5,5,1
1326899535.82151532,47.37625122,8.55031872,486.20788574,5,5,1
1326899535.86919641,47.37625122,8.55031872,486.24127197,5,5,1
1326899535.91751194,47.37625122,8.55032063,485.75949097,5,5,1
1326899535.96956015,47.37625122,8.55031967,485.79144287,5,5,1
1326899536.01762867,47.37625122,8.55031967,485.82333374,5,5,1
1326899536.06950831,47.37625122,8.55031967,485.85519409,5,5,1
1326899536.11860323,47.37625122,8.55031967,485.88702393,5,5,1
1326899536.16950440,47.37624741,8.55032063,485.41009521,5,5,1
1326899536.21759844,47.37624741,8.55032063,485.44049072,5,5,1
1326899536.26903844,47.37624741,8.55032063,485.47082520,5,5,1
1326899536.31826043,47.37624741,8.55031967,485.50112915,5,5,1
1326899536.36955976,47.37624741,8.55031967,485.53137207,5,5,1
1326899536.41704130,47.37624741,8.55032253,485.06207275,5,5,1
1326899536.46951818,47.37624741,8.55032158,485.09091187,5,5,1
1326899536.51704359,47.37624741,8.55032158,485.11968994,5,5,1
1326899536.56947947,47.37624741,8.55032158,485.14843750,5,5,1
1326899536.61717176,47.37624741,8.55032158,485.17712402,5,5,1
1326899536.67253828,47.37624359,8.55032253,484.72180176,5,5,1
1326899536.71764493,47.37624359,8.55032253,484.74911499,5,5,1
1326899536.76952720,47.37624359,8.55032253,484.77639771,5,5,1
1326899536.81765342,47.37624359,8.55032253,484.80361938,5,5,1
1326899536.86853337,47.37624359,8.55032158,484.83084106,5,5,1
1326899536.91689515,47.37624359,8.55032444,484.39895630,5,5,1
1326899536.96949601,47.37624359,8.55032444,484.42486572,5,5,1
1326899537.01687789,47.37624359,8.55032349,484.45071411,5,5,1
1326899537.06880569,47.37624359,8.55032349,484.47653198,5,5,1
1326899537.11771870,47.37624359,8.55032349,484.50228882,5,5,1
1326899537.16862893,47.37624359,8.55032539,484.09436035,5,5,1
1326899537.21764016,47.37624359,8.55032444,484.11889648,5,5,1
1326899537.26929641,47.37624359,8.55032444,484.14340210,5,5,1
1326899537.31667590,47.37624359,8.55032444,484.16784668,5,5,1
1326899537.36950779,47.37624359,8.55032444,484.19229126,5,5,1
1326899537.41752195,47.37623978,8.55032635,483.80419922,5,5,1
1326899537.46954060,47.37623978,8.55032539,483.82745361,5,5,1
1326899537.51751065,47.37623978,8.55032539,483.85067749,5,5,1
1326899537.56649137,47.37623978,8.55032539,483.87384033,5,5,1
1326899537.62055731,47.37623978,8.55032539,483.89697266,5,5,1
1326899537.67351365,47.37623978,8.55032635,483.52130127,5,5,1
1326899537.71752357,47.37623978,8.55032635,483.54327393,5,5,1
1326899537.77247572,47.37623978,8.55032635,483.56524658,5,5,1
1326899537.81653571,47.37623978,8.55032635,483.58712769,5,5,1
1326899537.86759019,47.37623978,8.55032539,483.60900879,5,5,1
1326899537.91751480,47.37623596,8.55032730,483.25534058,5,5,1
1326899537.96954966,47.37623978,8.55032730,483.27615356,5,5,1
1326899538.01667547,47.37623978,8.55032730,483.29690552,5,5,1
1326899538.06948519,47.37623978,8.55032730,483.31762695,5,5,1
1326899538.11663604,47.37623978,8.55032635,483.33831787,5,5,1
1326899538.16949677,47.37623596,8.55032825,482.99249268,5,5,1
1326899538.21733999,47.37623596,8.55032825,483.01214600,5,5,1
1326899538.27123284,47.37623596,8.55032825,483.03173828,5,5,1
1326899538.31749535,47.37623596,8.55032730,483.05126953,5,5,1
1326899538.36951637,47.37623596,8.55032730,483.07080078,5,5,1
1326899538.41720605,47.37623596,8.55032921,482.72979736,5,5,1
1326899538.46923447,47.37623596,8.55032921,482.74829102,5,5,1
1326899538.51721025,47.37623596,8.55032921,482.76675415,5,5,1
1326899538.56954145,47.37623596,8.55032825,482.78518677,5,5,1
1326899538.61754560,47.37623596,8.55032825,482.80355835,5,5,1
1326899538.66927147,47.37623215,8.55033016,482.46176147,5,5,1
1326899538.71762562,47.37623215,8.55032921,482.47915649,5,5,1
1326899538.76849103,47.37623215,8.55032921,482.49652100,5,5,1
1326899538.81705594,47.37623215,8.55032921,482.51382446,5,5,1
1326899538.86951375,47.37623215,8.55032921,482.53112793,5,5,1
1326899538.92148781,47.37623215,8.55033112,482.18585205,5,5,1
1326899538.96959662,47.37623215,8.55033112,482.20211792,5,5,1
1326899539.01706505,47.37623215,8.55033016,482.21835327,5,5,1
1326899539.06905723,47.37623215,8.55033016,482.23452759,5,5,1
1326899539.11748719,47.37623215,8.55033016,482.25064087,5,5,1
1326899539.16960406,47.37622833,8.55033112,481.91442871,5,5,1
1326899539.21697283,47.37622833,8.55033112,481.92953491,5,5,1
1326899539.26899719,47.37622833,8.55033112,481.94461060,5,5,1
1326899539.31692767,47.37622833,8.55033016,481.95965576,5,5,1
1326899539.36952400,47.37622833,8.55033016,481.97463989,5,5,1
1326899539.41764712,47.37622833,8.55033207,481.64288330,5,5,1
1326899539.46965694,47.37622833,8.55033207,481.65689087,5,5,1
1326899539.51752305,47.37622833,8.55033207,481.67086792,5,5,1
1326899539.56952667,47.37622833,8.55033112,481.68478394,5,5,1
1326899539.61763239,47.37622833,8.55033112,481.69863892,4,5,1
1326899539.66950130,47.37622452,8.55033207,481.37863159,4,5,1
1326899539.71764135,47.37622452,8.55033207,481.39157104,4,5,1
1326899539.76950979,47.37622452,8.55033207,481.40447998,4,5,1
1326899539.81765246,47.37622452,8.55033112,481.41732788,4,5,1
1326899539.86862469,47.37622452,8.55033112,481.43011475,4,5,1
1326899539.91752195,47.37622070,8.55033302,481.11026001,4,5,1
1326899539.96864820,47.37622452,8.55033207,481.12210083,4,5,1
1326899540.01691461,47.37622452,8.55033207,481.13391113,4,5,1
1326899540.06954193,47.37622452,8.55033207,481.14569092,4,5,1
1326899540.11692500,47.37622452,8.55033207,481.15737915,4,5,1
1326899540.16947746,47.37622070,8.55033302,480.84683228,4,5,1
1326899540.21666145,47.37622070,8.55033302,480.85763550,4,5,1
1326899540.27262831,47.37622070,8.55033302,480.86840820,4,5,1
1326899540.31750965,47.37622070,8.55033302,480.87915039,4,5,1
1326899540.36966228,47.37622070,8.55033207,480.88986206,4,5,1
1326899540.42090678,47.37621689,8.55033398,480.59420776,4,5,1
1326899540.46851444,47.37621689,8.55033398,480.60409546,4,5,1
1326899540.51754713,47.37621689,8.55033398,480.61389160,4,5,1
1326899540.56951904,47.37621689,8.55033302,480.62365723,4,5,1
1326899540.61651492,47.37621689,8.55033302,480.63339233,4,5,1
1326899540.67140508,47.37621689,8.55033493,480.34588623,4,5,1
1326899540.71753120,47.37621689,8.55033493,480.35479736,4,5,1
1326899540.76951098,47.37621689,8.55033398,480.36367798,4,5,1
1326899540.81661415,47.37621689,8.55033398,480.37252808,4,5,1
1326899540.86944509,47.37621689,8.55033398,480.38128662,4,5,1
1326899540.91751122,47.37621307,8.55033493,480.11447144,4,5,1
1326899540.96936989,47.37621307,8.55033493,480.12252808,4,5,1
1326899541.01654482,47.37621307,8.55033493,480.13052368,4,5,1
1326899541.06851196,47.37621307,8.55033398,480.13848877,4,5,1
1326899541.11758518,47.37621307,8.55033398,480.14639282,4,5,1
1326899541.16650867,47.37620926,8.55033493,479.88470459,4,5,1
1326899541.21655631,47.37620926,8.55033493,479.89187622,4,5,1
1326899541.26952600,47.37621307,8.55033493,479.89901733,4,5,1
1326899541.31738472,47.37621307,8.55033493,479.90609741,4,5,1
1326899541.36640620,47.37621307,8.55033398,479.91314697,4,5,1
1326899541.41751289,47.37620926,8.55033588,479.65432739,4,5,1
1326899541.46923947,47.37620926,8.55033588,479.66061401,4,5,1
1326899541.51770258,47.37620926,8.55033588,479.66687012,4,5,1
1326899541.56952477,47.37620926,8.55033493,479.67309570,4,5,1
1326899541.62055612,47.37620926,8.55033493,479.67929077,4,5,1
1326899541.68053842,47.37620544,8.55033684,479.43917847,4,5,1
1326899541.72061944,47.37620544,8.55033684,479.44583130,4,5,1
1326899541.76948380,47.37620544,8.55033588,479.45025635,4,5,1
1326899541.82057261,47.37620544,8.55033588,479.45571899,4,5,1
1326899541.86954737,47.37620926,8.55033588,479.46115112,4,5,1
1326899541.91751194,47.37620544,8.55033684,479.22631836,4,5,1
1326899541.96958494,47.37620544,8.55033684,479.23107910,4,5,1
1326899542.01723003,47.37620544,8.55033684,479.23577881,4,5,1
1326899542.06952596,47.37620544,8.55033684,479.24041748,4,5,1
1326899542.11764264,47.37620544,8.55033588,479.24502563,4,5,1
1326899542.16950798,47.37620544,8.55033779,479.01596069,4,5,1
1326899542.21765518,47.37620544,8.55033779,479.01992798,4,5,1
1326899542.26863790,47.37620544,8.55033779,479.02386475,4,5,1
1326899542.31751037,47.37620544,8.55033779,479.02777100,4,5,1
1326899542.36950946,47.37620544,8.55033779,479.03164673,4,5,1
1326899542.41708732,47.37620163,8.55033875,478.79431152,4,5,1
1326899542.46950197,47.37620163,8.55033779,478.79748535,4,5,1
1326899542.52062368,47.37620163,8.55033779,478.80062866,4,5,1
1326899542.56952620,47.37620163,8.55033779,478.80371094,4,5,1
1326899542.61762667,47.37620163,8.55033779,478.80676270,4,5,1
1326899542.66998291,47.37620163,8.55033875,478.57086182,4,5,1
1326899542.71752524,47.37620163,8.55033875,478.57324219,4,5,1
1326899542.76886535,47.37620163,8.55033779,478.57559204,4,5,1
1326899542.82059193,47.37620163,8.55033779,478.57788086,4,5,1
1326899542.86871696,47.37620163,8.55033779,478.58013916,4,5,1
1326899542.91765571,47.37620163,8.55033875,478.34161377,4,5,1
1326899542.96948385,47.37620163,8.55033875,478.34323120,4,5,1
1326899543.01765990,47.37620163,8.55033779,478.34478760,4,5,1
1326899543.06851268,47.37620163,8.55033779,478.34631348,4,5,1
1326899543.11750746,47.37620163,8.55033779,478.34777832,4,5,1
1326899543.16964364,47.37619781,8.55033970,478.11273193,4,5,1
1326899543.21681690,47.37619781,8.55033970,478.11358643,4,5,1
1326899543.26869822,47.37619781,8.55033970,478.11441040,4,5,1
1326899543.32164240,47.37619781,8.55033970,478.11517334,4,5,1
1326899543.36949658,47.37619781,8.55033875,478.11590576,4,5,1
1326899543.41654658,47.37619781,8.55034065,477.86495972,4,5,1
1326899543.46949196,47.37619781,8.55033970,477.86502075,4,5,1
1326899543.51770258,47.37619781,8.55033970,477.86505127,4,5,1
1326899543.56952596,47.37619781,8.55033970,477.86505127,4,5,1
1326899543.61650515,47.37619781,8.55033970,477.86499023,4,5,1
1326899543.66876054,47.37619400,8.55034065,477.58154297,4,5,1
1326899543.71648002,47.37619400,8.55033970,477.58065796,4,5,1
1326899543.76946974,47.37619400,8.55033970,477.57974243,4,5,1
1326899543.81648350,47.37619400,8.55033970,477.57876587,4,5,1
1326899543.86849022,47.37619400,8.55033970,477.57772827,4,5,1
1326899543.91751480,47.37619400,8.55034065,477.33319092,4,5,1
1326899543.96648192,47.37619400,8.55034065,477.33145142,4,5,1
1326899544.01927257,47.37619400,8.55034065,477.32968140,4,5,1
1326899544.07001853,47.37619400,8.55033970,477.32785034,4,5,1
1326899544.11663008,47.37619400,8.55033970,477.32598877,4,5,1
1326899544.16952014,47.37619400,8.55034065,476.97872925,4,5,1
1326899544.21738648,47.37619400,8.55034065,476.97583008,4,5,1
1326899544.26862669,47.37619400,8.55034065,476.97286987,4,5,1
1326899544.31752062,47.37619400,8.55034065,476.96987915,4,5,1
1326899544.36949182,47.37619400,8.55033970,476.96682739,4,5,1
1326899544.41755199,47.37619019,8.55034065,476.62356567,4,5,1
1326899544.46949649,47.37619019,8.55034065,476.61959839,4,5,1
1326899544.51725459,47.37619019,8.55034065,476.61557007,4,5,1
1326899544.56949472,47.37619019,8.55033970,476.61151123,4,5,1
1326899544.61765575,47.37619019,8.55033970,476.60742188,4,5,1
1326899544.66963410,47.37618637,8.55034161,476.14996338,4,5,1
1326899544.71751547,47.37618637,8.55034065,476.14459229,4,5,1
1326899544.76964378,47.37618637,8.55034065,476.13922119,4,5,1
1326899544.81754637,47.37618637,8.55034065,476.13378906,4,5,1
1326899544.86954355,47.37618637,8.55034065,476.12829590,4,5,1
1326899544.91725922,47.37618256,8.55034161,475.63607788,4,5,1
1326899544.96955848,47.37618256,8.55034161,475.62918091,4,5,1
1326899545.02062654,47.37618256,8.55034065,475.62225342,4,5,1
1326899545.06866574,47.37618256,8.55034065,475.61529541,4,5,1
1326899545.11751175,47.37618256,8.55034065,475.60824585,4,5,1
1326899545.16961360,47.37617874,8.55034256,474.98294067,4,5,1
1326899545.22055244,47.37617874,8.55034256,474.97412109,4,5,1
1326899545.26889777,47.37617874,8.55034161,474.96530151,4,5,1
1326899545.31765366,47.37617874,8.55034161,474.95642090,4,5,1
1326899545.36949849,47.37617874,8.55034161,474.94750977,4,5,1
1326899545.41755176,47.37617111,8.55034256,474.15505981,4,5,1
1326899545.46865797,47.37617111,8.55034256,474.14398193,4,5,1
1326899545.51758027,47.37617111,8.55034256,474.13284302,4,5,1
1326899545.56885147,47.37617111,8.55034256,474.12164307,4,5,1
1326899545.61698055,47.37617111,8.55034161,474.11041260,4,5,1
1326899545.66960168,47.37616730,8.55034351,473.24273682,4,5,1
1326899545.72165513,47.37616730,8.55034351,473.22903442,4,5,1
1326899545.76950717,47.37616730,8.55034351,473.21533203,4,5,1
1326899545.82163405,47.37616730,8.55034351,473.20156860,4,5,1
1326899545.86865878,47.37616730,8.55034351,473.18777466,4,5,1
1326899545.91825843,47.37615967,8.55034351,472.31741333,4,5,1
1326899545.96864843,47.37615967,8.55034351,472.30114746,4,5,1
1326899546.01765537,47.37615967,8.55034256,472.28482056,4,5,1
1326899546.07061744,47.37615967,8.55034256,472.26843262,4,5,1
